Regional Weather Roundup
Issued by NWS Upton, NY

Current Version | Previous Version | Graphics & Text | Print | Product List | Glossary Off
Versions: 1 2 3 4 5 6 7 8 9 10 11 12 13 14 15 16 17 18 19 20 21 22 23 24 25 26 27 28 29 30 31 32 33 34 35 36 37 38 39 40 41 42 43 44 45 46 47 48 49 50

197
ASUS41 KOKX 180205
RWROKX

Regional Weather Roundup
National Weather Service New York NY
900 PM EST SAT FEB 17 2018

Note: "FAIR" indicates few or no clouds below 12,000 feet with no
significant weather and/or obstructions to visibility.

NYZ071-072-176-178-NJZ106-104-180300-
New York City Metro Area

CITY           SKY/WX    TMP DP  RH WIND       PRES   REMARKS
Central Park   LGT SNOW  33  32  96 VRB3      30.13F VSB 3/4
Bronx Bot Gard   N/A     32  32 100 E5        30.14F WCI  27
Bronx Lehman C   N/A     32  32 100 E7          N/A  WCI  26
LaGuardia Arpt SNOW      33  31  92 NE7       30.12F VSB 1/2 WCI  27
Queens College   N/A     32  32 100 NE6         N/A  WCI  26
Kennedy Intl   LGT SNOW  32  32 100 NE8       30.13F VSB 3/4 WCI  25
Breezy Point     N/A     32 N/A N/A NE8         N/A  WCI  25
Brooklyn Coll    N/A     34  32  93 NE5         N/A  WCI  30
Staten Island    N/A     32  32 100 NE3         N/A
Newark/Liberty LGT SNOW  33  31  92 NE7       30.11F VSB 3/4 WCI  27
Teterboro      SNOW      33  32  96 E3        30.11F VSB 1/2
$$

NYZ177-179-078>081-180300-
Long Island New York

CITY           SKY/WX    TMP DP  RH WIND       PRES   REMARKS
Jones Beach      N/A     32 N/A N/A NE12        N/A  WCI  23
Wantagh          N/A     32  32 100 N5          N/A  WCI  27
Hempstead        N/A     32  32 100 NE1       30.15F
Matinecock Pt    N/A     32 N/A N/A E7          N/A  WCI  26
Farmingdale    LGT SNOW  32  32 100 NE7       30.13F VSB 3/4 WCI  26
MacArthur/ISP  LGT SNOW  33  33 100 NE5       30.13F VSB 3/4 WCI  29
Shirley        LGT SNOW  33  33 100 CALM      30.14F FOG
Mt Sinai Harb    N/A    N/A N/A N/A E3          N/A
Westhampton    RAIN      36  35  96 NE8       30.15F FOG     WCI  30
East Hampton   RAIN      34  32  92 E6        30.16F WCI  29
Southold         N/A     32  32 100 E5          N/A  WCI  27
Montauk          N/A     35  32  88 E6        30.17F WCI  30
$$

NYZ052-065-067-180300-
Hudson Valley

CITY           SKY/WX    TMP DP  RH WIND       PRES   REMARKS
White Plains   HVY SNOW  31  31 100 E6        30.10F VSB 1/4 WCI  25
Larchmont Harb   N/A    N/A N/A N/A NE9         N/A
Croton On Huds   N/A    N/A N/A N/A MISG        N/A
Somers           N/A     30  30 100 SE6         N/A  WCI  24
Brewster         N/A     30  30 100 SE2         N/A
Newburgh       LGT SNOW  30  30 100 CALM      30.09F FOG
Montgomery     LGT SNOW  31  29  92 SE3       30.07F VSB 3/4
Otisville        N/A     30  30 100 NE1         N/A
Warwick          N/A     32  32 100 E5          N/A  WCI  27
Suffern          N/A     32  32 100 E2          N/A
Poughkeepsie   LGT SNOW  30  28  92 CALM      30.09F VSB 3/4
Albany         LGT SNOW  30  26  85 S9        30.11F FOG     WCI  22
$$

NJZ001-105-106-008-010-013-015-019>022-104-180300-
New Jersey

CITY           SKY/WX    TMP DP  RH WIND       PRES   REMARKS
Newark/Liberty LGT SNOW  33  31  92 NE7       30.11F VSB 3/4 WCI  27
Teterboro      SNOW      33  32  96 E3        30.11F VSB 1/2
Caldwell       LGT SNOW  32  32 100 SE8       30.09F VSB 3/4 WCI  25
Somerville     SNOW      32  32 100 SE3       30.07F VSB 1/2
Linden         LGT SNOW  32  31  95 CALM      30.11F
Perth Amboy      N/A     32 N/A N/A E2          N/A
Sussex         LGT SNOW  31  30  96 CALM      30.06F VSB 3/4
Andover          N/A     31  29  92 CALM      30.05F
Trenton        SNOW      33  32  96 E7        30.08F VSB 1/2 WCI  27
Millville      RAIN      33  32  96 NE3       30.09F FOG
Atlantic City  RAIN      34  34 100 CALM      30.09  FOG
Wrightstown    LGT RAIN  32  32  98 CALM      30.06
Toms River     LGT SNOW  32  32 100 NE3       30.10F FOG
Belmar         LGT SNOW  32  31  96 E5        30.11F FOG     WCI  27
$$

PAZ047>061-062-071-180300-
Eastern Pennsylvania

CITY           SKY/WX    TMP DP  RH WIND       PRES   REMARKS
Philadelphia   LGT SNOW  32  31  96 E7        30.08  FOG     WCI  26
Allentown      LGT SNOW  34  31  88 SE5       30.06F FOG     WCI  30
Scranton       LGT SNOW  30  29  96 NW5       30.05R VSB 1   WCI  25
$$

CTZ002-004>006-009-010-012-RIZ004-006-007-MAZ004-011-015-180300-
Southern New England

 In CT

CITY           SKY/WX    TMP DP  RH WIND       PRES   REMARKS
Bradley Intl   LGT SNOW  29  29 100 CALM      30.15F VSB 1
Hartford       SNOW      30  29  96 CALM      30.16F VSB 1/2
Danbury        SNOW      32  30  92 CALM      30.12F VSB 1/2
Wtrbury/Oxford LGT SNOW  29  28  96 E7        30.11F VSB 3/4 WCI  22
Norwalk Harbor   N/A    N/A N/A N/A E9          N/A
Bridgeport     LGT SNOW  33  31  92 E9        30.15F FOG     WCI  25
Meriden        SNOW      30  29  96 CALM      30.15F VSB 1/2
New Haven      LGT SNOW  33  31  92 E7        30.15F VSB 1   WCI  27
Chester        LGT SNOW  32  30  93 CALM      30.15F
Groton         LGT SNOW  34  32  92 E9        30.17F VSB 3/4 WCI  27
Willimantic    LGT SNOW  30  29  96 CALM      30.18F VSB 3/4

 In RI

CITY           SKY/WX    TMP DP  RH WIND       PRES   REMARKS
Providence     LGTSLEET  33  33 100 SE7       30.21F FOG     WCI  27
Block Island   LGT SNOW  33  32  96 E9        30.18F FOG     WCI  25
Westerly       SNOW      34  33  96 SE9       30.18F VSB 1/2 WCI  27

In MA

CITY           SKY/WX    TMP DP  RH WIND       PRES   REMARKS
Boston         LGT SNOW  32  28  85 S16       30.22  FOG     WCI  21
Worcester      LGT SNOW  26  24  92 SE6       30.13F VSB 3/4 WCI  19
Westfield      LGT SNOW  29  28  96 S5        30.15F VSB 1   WCI  24
Provincetown   CLOUDY    36  28  73 S7        30.24F WCI  30
Nantucket      CLOUDY    37  32  82 E15       30.22F WCI  28
$$

ANZ330-335-338-340-345-350-353-355-180300-
Coastal Marine Observations


STATION/POSITION TIME  SKY/WX   TEMP    WIND        PRES    VSBY  WAVE
                                AIR SEA DIR/SP/G                  HT/PER
                 (UTC)          (F)     (DEG/KT/KT) (MB)    (MI)  (FT/S)
NY Harb Entrance 0150            35 39  200/  6/  8 1019.7          2/10
20 S Fire Island 0150            40 42  160/ 12/ 14 1019.9          3/ 4
15 E Barnegat Li 0130               41                N/A           3/11
Hudson Canyon    0150            45 46   80/ 14/ 17 1017.6          3/ 5
Kings Point      0148            32 36     CALM     1021.3
Execution Rocks  NOT AVBL
Western LI Sound NOT AVBL
Central LI Sound 0130            33     100/  8/ 10   N/A           1
Robbins Reef     0148            32      60/  9/ 10 1020.6
$$


>>>>>>>>>>>>>>>>>>>>>>>>>>>> KEY <<<<<<<<<<<<<<<<<<<<<<<<<<<
>                                                          <
>     SKY/WX - Sky Condition/Present Weather               <
>     TMP    - Temperature in Fahrenheit                   <
>     DP     - Dew Point in Fahrenheit                     <
>     RH     - Relative Humidity in Percent                <
>     WIND   - Direction (from) and Speed in MPH           <
>     PRES   - Mean Sea Level Pressure (inches of Hg)      <
>     WCI    - Wind Chill Index                            <
>     VSB    - Visibility in Miles                         <
>     HX     - Heat Index                                  <
>     TC     - Temperature in Celsius                      <
>     VRB    - Varibale Wind Direction                     <
>                                                          <
>>>>>>>>>>>>>>>>>>>>>>>>>>>> KEY <<<<<<<<<<<<<<<<<<<<<<<<<<<




USA.gov is the U.S. government's official web portal to all federal, state and local government web resources and services.